When you browse on this site, cookies collect data to enhance your experience and personalize the content and advertising you see.
Visit our Privacy Policy to learn more. By continuing to use the site, you agree to this use of cookies and data.
  • In Österreich
  • Länderverzeichnis
  • Für 7 Tage
  • Wassertemperatur
  • Satellitenkarten
  • Wetterkarte
  • News
  • Widgets
  • user-avatar
    Anmelden

    Stündliche Wetter Rochefort-en-Terre

    Heute, 25 April, Donnerstag

    Zeit Temperatur Niederschläge Wind Luftdruck Luftfeuchtigkeit
    00:00 +8°C° 0 mm 4 m/S 739 mmHg 92%
    01:00 +8°C° 0.3 mm 5 m/S 739 mmHg 91%
    02:00 +8°C° 0.3 mm 5 m/S 740 mmHg 90%
    03:00 +8°C° 0.3 mm 5 m/S 740 mmHg 89%
    04:00 +7°C° 0.1 mm 5 m/S 740 mmHg 89%
    05:00 +7°C° 0.1 mm 5 m/S 741 mmHg 89%
    06:00 +7°C° 0 mm 4 m/S 741 mmHg 89%
    07:00 +8°C° 0.3 mm 5 m/S 742 mmHg 85%
    08:00 +9°C° 0.3 mm 6 m/S 742 mmHg 81%
    09:00 +10°C° 0.3 mm 8 m/S 742 mmHg 77%
    10:00 +11°C° 0.5 mm 8 m/S 743 mmHg 76%
    11:00 +11°C° 0.5 mm 8 m/S 743 mmHg 74%
    12:00 +11°C° 0.5 mm 8 m/S 744 mmHg 72%
    13:00 +11°C° 0.5 mm 8 m/S 744 mmHg 73%
    14:00 +11°C° 0.5 mm 8 m/S 745 mmHg 73%
    15:00 +11°C° 0.5 mm 8 m/S 745 mmHg 73%
    16:00 +11°C° 0.3 mm 7 m/S 745 mmHg 76%
    17:00 +10°C° 0.3 mm 6 m/S 745 mmHg 79%
    18:00 +10°C° 0.3 mm 5 m/S 746 mmHg 82%
    19:00 +10°C° 0.2 mm 4 m/S 746 mmHg 85%
    20:00 +8°C° 0.2 mm 4 m/S 747 mmHg 88%
    21:00 +7°C° 0.2 mm 4 m/S 748 mmHg 91%
    22:00 +8°C° 0.1 mm 3 m/S 748 mmHg 91%
    23:00 +8°C° 0.1 mm 3 m/S 749 mmHg 92%

    Morgen, 26 April, Freitag

    Zeit Temperatur Niederschläge Wind Luftdruck Luftfeuchtigkeit
    00:00 +7°C° 0.1 mm 3 m/S 749 mmHg 93%
    01:00 +7°C° 0 mm 3 m/S 749 mmHg 93%
    02:00 +7°C° 0 mm 3 m/S 750 mmHg 93%
    03:00 +7°C° 0 mm 3 m/S 750 mmHg 94%
    04:00 +8°C° 0 mm 3 m/S 750 mmHg 94%
    05:00 +8°C° 0 mm 3 m/S 751 mmHg 94%
    06:00 +8°C° 0 mm 3 m/S 752 mmHg 95%
    07:00 +10°C° 0 mm 3 m/S 752 mmHg 90%
    08:00 +11°C° 0 mm 4 m/S 753 mmHg 85%
    09:00 +13°C° 0 mm 5 m/S 753 mmHg 80%
    10:00 +13°C° 0.4 mm 6 m/S 754 mmHg 78%
    11:00 +14°C° 0.4 mm 6 m/S 755 mmHg 76%
    12:00 +14°C° 0.4 mm 7 m/S 755 mmHg 74%
    13:00 +14°C° 0.1 mm 7 m/S 756 mmHg 71%
    14:00 +12°C° 0.1 mm 8 m/S 756 mmHg 69%
    15:00 +12°C° 0.1 mm 8 m/S 757 mmHg 67%
    16:00 +11°C° 0 mm 8 m/S 757 mmHg 69%
    17:00 +10°C° 0 mm 7 m/S 757 mmHg 72%
    18:00 +9°C° 0 mm 6 m/S 757 mmHg 75%
    19:00 +9°C° 0 mm 6 m/S 757 mmHg 77%
    20:00 +9°C° 0 mm 7 m/S 758 mmHg 80%
    21:00 +9°C° 0 mm 7 m/S 758 mmHg 82%
    22:00 +9°C° 0.3 mm 7 m/S 758 mmHg 85%
    23:00 +9°C° 0.3 mm 7 m/S 758 mmHg 88%

    übermorgen, 27 April, Samstag

    Zeit Temperatur Niederschläge Wind Luftdruck Luftfeuchtigkeit
    00:00 +10°C° 0.3 mm 8 m/S 757 mmHg 91%
    01:00 +9°C° 0.1 mm 7 m/S 757 mmHg 88%
    02:00 +8°C° 0.1 mm 6 m/S 757 mmHg 86%
    03:00 +7°C° 0.1 mm 5 m/S 757 mmHg 83%
    04:00 +6°C° 0 mm 5 m/S 758 mmHg 83%
    05:00 +6°C° 0 mm 5 m/S 758 mmHg 82%
    06:00 +6°C° 0 mm 5 m/S 759 mmHg 81%
    07:00 +7°C° 0 mm 6 m/S 759 mmHg 76%
    08:00 +8°C° 0 mm 7 m/S 760 mmHg 70%
    09:00 +9°C° 0 mm 8 m/S 760 mmHg 65%
    10:00 +9°C° 0 mm 7 m/S 760 mmHg 64%
    11:00 +10°C° 0 mm 7 m/S 761 mmHg 64%
    12:00 +10°C° 0 mm 7 m/S 761 mmHg 64%
    13:00 +10°C° 0.1 mm 7 m/S 761 mmHg 65%
    14:00 +10°C° 0.1 mm 7 m/S 761 mmHg 66%
    15:00 +10°C° 0.1 mm 7 m/S 761 mmHg 67%
    16:00 +9°C° 0 mm 6 m/S 761 mmHg 69%
    17:00 +9°C° 0 mm 6 m/S 761 mmHg 71%
    18:00 +8°C° 0 mm 5 m/S 762 mmHg 74%
    19:00 +8°C° 0 mm 5 m/S 762 mmHg 74%
    20:00 +7°C° 0 mm 4 m/S 762 mmHg 75%
    21:00 +7°C° 0 mm 4 m/S 763 mmHg 75%
    22:00 +6°C° 0 mm 4 m/S 763 mmHg 76%
    23:00 +6°C° 0 mm 4 m/S 763 mmHg 77%

    28 April, Sonntag

    Zeit Temperatur Niederschläge Wind Luftdruck Luftfeuchtigkeit
    00:00 +6°C° 0 mm 4 m/S 763 mmHg 78%
    01:00 +6°C° 0 mm 4 m/S 763 mmHg 80%
    02:00 +6°C° 0 mm 4 m/S 762 mmHg 81%
    03:00 +5°C° 0 mm 4 m/S 762 mmHg 83%
    04:00 +6°C° 0 mm 4 m/S 762 mmHg 83%
    05:00 +6°C° 0 mm 4 m/S 762 mmHg 83%
    06:00 +6°C° 0 mm 4 m/S 762 mmHg 83%
    07:00 +7°C° 0 mm 4 m/S 762 mmHg 78%
    08:00 +9°C° 0 mm 5 m/S 762 mmHg 74%
    09:00 +10°C° 0 mm 5 m/S 763 mmHg 69%
    10:00 +10°C° 0 mm 5 m/S 762 mmHg 69%
    11:00 +12°C° 0 mm 5 m/S 762 mmHg 69%
    12:00 +12°C° 0 mm 4 m/S 762 mmHg 69%
    13:00 +12°C° 0 mm 4 m/S 762 mmHg 69%
    14:00 +12°C° 0 mm 5 m/S 762 mmHg 69%
    15:00 +13°C° 0 mm 5 m/S 762 mmHg 69%
    16:00 +12°C° 0 mm 4 m/S 761 mmHg 71%
    17:00 +12°C° 0 mm 3 m/S 761 mmHg 74%
    18:00 +11°C° 0 mm 3 m/S 761 mmHg 77%
    19:00 +10°C° 0 mm 3 m/S 761 mmHg 81%
    20:00 +8°C° 0 mm 2 m/S 761 mmHg 86%
    21:00 +7°C° 0 mm 2 m/S 762 mmHg 91%
    22:00 +6°C° 0 mm 2 m/S 762 mmHg 92%
    23:00 +6°C° 0 mm 2 m/S 762 mmHg 93%

    29 April, Montag

    Zeit Temperatur Niederschläge Wind Luftdruck Luftfeuchtigkeit
    00:00 +6°C° 0 mm 2 m/S 761 mmHg 94%
    01:00 +6°C° 0 mm 2 m/S 761 mmHg 94%
    02:00 +5°C° 0 mm 2 m/S 761 mmHg 94%
    03:00 +5°C° 0 mm 2 m/S 761 mmHg 95%
    04:00 +7°C° 0 mm 1 m/S 761 mmHg 94%
    05:00 +7°C° 0 mm 1 m/S 761 mmHg 94%
    06:00 +7°C° 0 mm 1 m/S 761 mmHg 94%
    07:00 +8°C° 0 mm 2 m/S 761 mmHg 88%
    08:00 +12°C° 0 mm 2 m/S 761 mmHg 82%
    09:00 +14°C° 0 mm 2 m/S 761 mmHg 76%
    10:00 +14°C° 0.2 mm 2 m/S 761 mmHg 75%
    11:00 +15°C° 0.2 mm 2 m/S 760 mmHg 73%
    12:00 +15°C° 0.2 mm 2 m/S 760 mmHg 72%
    13:00 +16°C° 0.2 mm 2 m/S 760 mmHg 70%
    14:00 +16°C° 0.2 mm 3 m/S 760 mmHg 67%
    15:00 +17°C° 0.2 mm 3 m/S 759 mmHg 65%
    16:00 +15°C° 0.1 mm 4 m/S 759 mmHg 70%
    17:00 +14°C° 0.1 mm 4 m/S 759 mmHg 75%
    18:00 +13°C° 0.1 mm 4 m/S 759 mmHg 80%
    19:00 +11°C° 0 mm 4 m/S 759 mmHg 84%
    20:00 +10°C° 0 mm 3 m/S 759 mmHg 88%
    21:00 +8°C° 0 mm 3 m/S 760 mmHg 92%
    22:00 +8°C° 0 mm 3 m/S 760 mmHg 93%
    23:00 +7°C° 0 mm 3 m/S 759 mmHg 94%

    30 April, Dienstag

    Zeit Temperatur Niederschläge Wind Luftdruck Luftfeuchtigkeit
    00:00 +7°C° 0 mm 3 m/S 759 mmHg 95%
    01:00 +7°C° 0 mm 3 m/S 759 mmHg 95%
    02:00 +5°C° 0 mm 3 m/S 759 mmHg 95%
    03:00 +5°C° 0 mm 3 m/S 759 mmHg 95%
    04:00 +5°C° 0 mm 3 m/S 758 mmHg 94%
    05:00 +5°C° 0 mm 3 m/S 758 mmHg 94%
    06:00 +5°C° 0 mm 3 m/S 758 mmHg 93%
    07:00 +9°C° 0 mm 3 m/S 758 mmHg 86%
    08:00 +11°C° 0 mm 3 m/S 758 mmHg 79%
    09:00 +13°C° 0 mm 3 m/S 758 mmHg 73%
    10:00 +14°C° 0 mm 3 m/S 758 mmHg 68%
    11:00 +16°C° 0 mm 3 m/S 758 mmHg 64%
    12:00 +18°C° 0 mm 3 m/S 758 mmHg 60%
    13:00 +18°C° 0.1 mm 3 m/S 757 mmHg 61%
    14:00 +18°C° 0.1 mm 3 m/S 757 mmHg 61%
    15:00 +18°C° 0.1 mm 3 m/S 757 mmHg 62%
    16:00 +17°C° 0.1 mm 3 m/S 757 mmHg 67%
    17:00 +17°C° 0.1 mm 3 m/S 756 mmHg 73%
    18:00 +15°C° 0.1 mm 4 m/S 756 mmHg 78%
    19:00 +13°C° 0 mm 4 m/S 757 mmHg 82%
    20:00 +11°C° 0 mm 4 m/S 757 mmHg 87%
    21:00 +8°C° 0 mm 4 m/S 757 mmHg 92%
    22:00 +8°C° 0 mm 4 m/S 757 mmHg 93%
    23:00 +8°C° 0 mm 3 m/S 757 mmHg 94%
    Mehr zeigen